This demonstration page uses our WeatherBlox Daily Observations layout. Learn more.

Hourly Observations for April 18, 2019

Temp ( °F °C ) Dew Point ( °F °C ) Humidity (%) Winds ( mph kmh ) Pressure ( in mb ) Visibility ( mi km ) Precip ( " mm )
12:15 am 00:15 Clear 55 13 46 8 72 72 E 5 7 30.12 1020 10 16.09344 0 0
12:35 am 00:35 Clear 55 13 48 9 77 77 E 6 9 30.12 1020 10 16.09344 0 0
12:55 am 00:55 Clear 54 12 48 9 82 82 E 7 11 30.12 1020 10 16.09344 0 0
1:15 am 01:15 Clear 54 12 50 10 88 88 ESE 8 13 30.09 1019 10 16.09344 0 0
1:35 am 01:35 Clear 54 12 50 10 88 88 ESE 6 9 30.09 1019 10 16.09344 0 0
1:55 am 01:55 Mostly Cloudy 54 12 50 10 88 88 ESE 6 9 30.09 1019 10 16.09344 0 0
2:15 am 02:15 Cloudy 54 12 50 10 88 88 ESE 5 7 30.09 1019 10 16.09344 0 0
2:35 am 02:35 Cloudy 54 12 50 10 88 88 ESE 6 9 30.09 1019 10 16.09344 0 0
2:55 am 02:55 Cloudy 54 12 50 10 88 88 ESE 7 11 30.09 1019 10 16.09344 0 0
3:15 am 03:15 Cloudy 54 12 50 10 88 88 E 5 7 30.06 1018 10 16.09344 0 0
3:35 am 03:35 Cloudy 54 12 50 10 88 88 ESE 5 7 30.06 1018 10 16.09344 0 0
3:55 am 03:55 Cloudy 54 12 50 10 88 88 E 5 7 30.06 1018 10 16.09344 0 0
4:15 am 04:15 Cloudy 54 12 52 11 94 94 ESE 6 9 30.06 1018 10 16.09344 0 0
4:35 am 04:35 Cloudy 54 12 52 11 94 94 ESE 7 11 30.06 1018 10 16.09344 0 0
4:55 am 04:55 Cloudy 54 12 52 11 94 94 ESE 6 9 30.03 1017 10 16.09344 0 0
5:15 am 05:15 Cloudy 54 12 52 11 94 94 ENE 5 7 30.03 1017 10 16.09344 0 0
5:35 am 05:35 Cloudy 54 12 52 11 94 94 E 3 6 30.03 1017 10 16.09344 0 0
5:55 am 05:55 Cloudy 54 12 52 11 94 94 ENE 5 7 30.03 1017 10 16.09344 0 0
6:15 am 06:15 Cloudy 54 12 52 11 94 94 Calm 30.06 1018 10 16.09344 0 0
6:35 am 06:35 Cloudy 54 12 52 11 94 94 Calm 30.03 1017 10 16.09344 0 0
6:55 am 06:55 Cloudy 54 12 52 11 94 94 Calm 30.06 1018 10 16.09344 0 0
7:15 am 07:15 Cloudy 54 12 52 11 94 94 Calm 30.06 1018 10 16.09344 0 0
7:35 am 07:35 Cloudy 54 12 52 11 94 94 E 6 9 30.06 1018 10 16.09344 0 0
7:55 am 07:55 Cloudy 54 12 52 11 94 94 Calm 30.06 1018 10 16.09344 0 0
8:15 am 08:15 Cloudy 54 12 54 12 100 100 Calm 30.06 1018 10 16.09344 0 0
8:35 am 08:35 Cloudy 55 13 54 12 94 94 Calm 30.03 1017 10 16.09344 0 0
8:55 am 08:55 Cloudy 55 13 54 12 94 94 Calm 30.03 1017 10 16.09344 0 0
9:15 am 09:15 Cloudy 55 13 54 12 94 94 SE 3 6 30.03 1017 10 16.09344 0 0
9:35 am 09:35 Cloudy 57 14 54 12 88 88 Calm 30.03 1017 10 16.09344 0 0
9:55 am 09:55 Cloudy 57 14 54 12 88 88 Calm 30.03 1017 10 16.09344 0 0
10:15 am 10:15 Cloudy 59 15 54 12 82 82 S 5 7 30.03 1017 10 16.09344 0 0
10:35 am 10:35 Cloudy 61 16 54 12 77 77 SW 5 7 30.03 1017 10 16.09344 0 0
10:55 am 10:55 Mostly Cloudy 61 16 54 12 77 77 S 6 9 30.03 1017 10 16.09344 0 0
11:15 am 11:15 Mostly Cloudy 63 17 55 13 77 77 SSW 5 7 30.03 1017 10 16.09344 0 0
11:35 am 11:35 Partly Cloudy 63 17 55 13 77 77 S 3 6 30 1016 10 16.09344 0 0
11:55 am 11:55 Sunny 64 18 55 13 73 73 S 3 6 30 1016 10 16.09344 0 0
12:15 pm 12:15 Sunny 66 19 55 13 68 68 SSE 6 9 29.97 1015 10 16.09344 0 0
12:35 pm 12:35 Sunny 68 20 57 14 69 69 S 12 19 29.97 1015 10 16.09344 0 0
12:55 pm 12:55 Sunny 70 21 57 14 64 64 SW 6 9 29.97 1015 10 16.09344 0 0
1:15 pm 13:15 Sunny 70 21 57 14 64 64 S 5 7 29.97 1015 10 16.09344 0 0
1:35 pm 13:35 Sunny 72 22 57 14 61 61 S 8 13 29.94 1014 10 16.09344 0 0
1:55 pm 13:55 Mostly Cloudy 72 22 59 15 65 65 SSE 10 17 29.94 1014 10 16.09344 0 0
2:15 pm 14:15 Mostly Cloudy 72 22 57 14 61 61 S 13 20 29.94 1014 10 16.09344 0 0
2:35 pm 14:35 Partly Cloudy 72 22 55 13 57 57 SSW 13 20 29.94 1014 10 16.09344 0 0
2:55 pm 14:55 Sunny 72 22 57 14 61 61 SSW 10 17 29.94 1014 10 16.09344 0 0
3:15 pm 15:15 Sunny 73 23 57 14 57 57 SSW 9 15 29.91 1013 10 16.09344 0 0
3:30 pm 15:30 Sunny 73 23 57 14 57 57 S 10 17 29.88 1012 10 16.09344 0 0
3:55 pm 15:55 Sunny 77 25 59 15 54 54 S 12 19 29.88 1012 10 16.09344 0 0
4:15 pm 16:15 Sunny 77 25 59 15 54 54 S 14 22 29.88 1012 10 16.09344 0 0
4:35 pm 16:35 Sunny 79 26 55 13 45 45 S 17 28 29.85 1011 10 16.09344 0 0
4:55 pm 16:55 Sunny 79 26 57 14 48 48 SSW 8 13 29.85 1011 10 16.09344 0 0
5:15 pm 17:15 Sunny 79 26 57 14 48 48 S 8 13 29.83 1010 10 16.09344 0 0
5:35 pm 17:35 Sunny 81 27 57 14 45 45 S 8 13 29.83 1010 10 16.09344 0 0
5:55 pm 17:55 Sunny 81 27 57 14 45 45 SSW 10 17 29.83 1010 10 16.09344 0 0
6:15 pm 18:15 Sunny 81 27 57 14 45 45 S 14 22 29.83 1010 10 16.09344 0 0
6:35 pm 18:35 Sunny 81 27 59 15 48 48 S 17 28 29.8 1009 10 16.09344 0 0
6:55 pm 18:55 Sunny 81 27 59 15 48 48 S 15 24 29.8 1009 10 16.09344 0 0
7:15 pm 19:15 Sunny 81 27 59 15 48 48 S 13 20 29.8 1009 10 16.09344 0 0
7:35 pm 19:35 Sunny 81 27 57 14 45 45 S 14 22 29.77 1008 10 16.09344 0 0
7:55 pm 19:55 Clear 79 26 55 13 45 45 S 15 24 29.8 1009 10 16.09344 0 0
8:15 pm 20:15 Clear 79 26 54 12 42 42 S 15 24 29.8 1009 10 16.09344 0 0
8:35 pm 20:35 Clear 79 26 54 12 42 42 S 17 28 29.8 1009 10 16.09344 0 0
8:55 pm 20:55 Clear 77 25 52 11 42 42 SSW 22 35 29.8 1009 10 16.09344 0 0
9:15 pm 21:15 Clear 77 25 50 10 39 39 S 20 31 29.83 1010 10 16.09344 0 0
9:35 pm 21:35 Clear 77 25 50 10 39 39 S 22 35 29.83 1010 10 16.09344 0 0
9:55 pm 21:55 Clear 75 24 50 10 41 41 S 15 24 29.83 1010 10 16.09344 0 0
10:15 pm 22:15 Clear 75 24 52 11 44 44 S 13 20 29.83 1010 10 16.09344 0 0
10:35 pm 22:35 Clear 73 23 52 11 47 47 S 16 26 29.83 1010 10 16.09344 0 0
10:55 pm 22:55 Clear 73 23 52 11 47 47 S 13 20 29.83 1010 10 16.09344 0 0
11:15 pm 23:15 Clear 73 23 54 12 50 50 S 12 19 29.83 1010 10 16.09344 0 0
11:35 pm 23:35 Clear 73 23 54 12 50 50 S 9 15 29.83 1010 10 16.09344 0 0
11:55 pm 23:55 Clear 72 22 55 13 57 57 S 13 20 29.8 1009 10 16.09344 0 0

Powered by AerisWeather